User: anonymous   Login
Location: Mentone
(34.5413°N, 85.5351°W)
Time: 17:28:52
(UTC-05:00)
Language:

S-56A Canister/Altair - Orbit

View from above orbital plane
View from above orbital plane
View from above satellite
View from above satellite

Ground track
Ground track

The orbit data is extracted from the following two-line orbital elements,

1 00082U 61004B   15181.16734639 -.00000037  00000-0  64568-5 0  9991
2 00082 038.8592 073.6661 1172587 330.0029 023.8194 12.25704124585153
Epoch (UTC): 30 June 2015 04:00:58
Eccentricity: 0.1172587
inclination: 38.8592°
perigee height: 636 km
apogee height: 2499 km
right ascension of ascending node: 73.6661°
argument of perigee: 330.0029°
revolutions per day: 12.25704124
mean anomaly at epoch: 23.8194°
orbit number at epoch: 58515

The dashed part of the orbit path shows where the satellite is in the earth's shadow,  

DLR